Location: Newark
(44.1667°N, 8.2500°E)
Time: 06:02:03
(UTC+00:00)

Vanguard 2 - Pass Details

Date: 08 December 2019
Orbit: 553 x 2938 km, 32.9° (Epoch: 19 January)

Event Time Altitude Azimuth Distance (km) Brightness Sun altitude
Exits shadow 23:33:32 11° 95° (E) 5,695 11.9 -68.4°
Drops below altitude 10° 23:34:00 10° 94° (E) 5,769 11.9 -68.4°
Sets 23:39:41 0° 83° (E) 6,716 12.4 -68.2°
